This demonstration page uses our WeatherBlox Daily Observations layout. Learn more.

Left ArrowRight Arrow

47.50024, -111.30081

Hourly Observations for October 26, 2019

Temp ( °F °C ) Dew Point ( °F °C ) Humidity (%) Winds ( mph kmh ) Pressure ( in mb ) Visibility ( mi km ) Precip ( " mm )
12:05 am 00:05 Windy with Snow Likely 33 0.6 30 -1.1 89 89 NNW 24 39 30.03 1017 3 4 0.02 0.51
12:08 am 00:08 Windy with Snow Likely 33 0.6 30 -1.1 89 89 NNW 24 39 30.03 1017 2 3 0.02 0.51
12:11 am 00:11 Windy with Snow Likely 33 0.6 30 -1.1 89 89 N 21 33 30.03 1017 1 2 0.02 0.51
12:21 am 00:21 Mostly Cloudy with Snow 32 0 30 -1.1 92 92 NNW 17 28 30.03 1017 1 1 0.06 1.52
12:53 am 00:53 Mostly Cloudy with Light Snow 32 0 30 -1.1 92 92 NNW 15 24 29.98 1015 1 1 0.10 2.54
1:53 am 01:53 Mostly Cloudy with Light Snow 31 -0.6 29 -1.7 92 92 N 20 31 30.00 1016 1 1 0.07 1.78
2:53 am 02:53 Mostly Cloudy with Light Snow 30 -1.1 28 -2.2 92 92 NNW 15 24 30.05 1018 1 1 0.08 2.03
3:53 am 03:53 Mostly Cloudy with Light Snow 30 -1.1 28 -2.2 92 92 NNW 14 22 30.05 1018 1 1 0.05 1.27
4:39 am 04:39 Cloudy with Light Snow 30 -1.1 27 -2.8 88 88 NNW 17 28 30.18 1022 3 4 0.03 0.76
4:42 am 04:42 Cloudy with Light Snow 30 -1.1 27 -2.8 88 88 NNW 17 28 30.15 1021 3 5 0.03 0.76
4:50 am 04:50 Windy with Snow Likely 30 -1 27 -3 86 86 N 21 33 30.15 1021 6 10 0.03 0.76
4:53 am 04:53 Cloudy with Light Snow 29 -1.7 26 -3.3 89 89 N 18 30 30.04 1017 5 8 0.03 0.76
5:50 am 05:50 Cloudy with Light Snow 28 -2 27 -3 93 93 NW 15 24 30.21 1023 3 5 0.00 0.00
5:53 am 05:53 Cloudy with Light Snow 29 -1.7 27 -2.8 92 92 NNW 18 30 30.09 1019 3 5 0.00 0.00
6:20 am 06:20 Cloudy with Light Snow 29 -1.7 26 -3.3 89 89 N 16 26 30.21 1023 5 8 0.00 0.00
6:53 am 06:53 Cloudy 29 -1.7 25 -3.9 85 85 N 15 24 30.10 1019 10 16 0.00 0.00
7:53 am 07:53 Cloudy 29 -1.7 24 -4.4 82 82 N 14 22 30.14 1021 10 16 0.00 0.00
8:53 am 08:53 Cloudy 29 -1.7 24 -4.4 82 82 N 13 20 30.18 1022 10 16 0.00 0.00
9:53 am 09:53 Cloudy 29 -1.7 23 -5 78 78 N 12 19 30.21 1023 10 16 0.00 0.00
10:53 am 10:53 Cloudy 30 -1.1 23 -5 75 75 N 12 19 30.26 1025 10 16 0.00 0.00
11:53 am 11:53 Cloudy 31 -0.6 24 -4.4 76 76 N 8 13 30.28 1026 10 16 0.00 0.00
12:53 pm 12:53 Mostly Cloudy 32 0 24 -4.4 73 73 NNW 9 15 30.29 1026 10 16 0.00 0.00
1:53 pm 13:53 Partly Cloudy 33 0.6 24 -4.4 70 70 NW 9 15 30.29 1026 10 16 0.00 0.00
2:17 pm 14:17 Mostly Cloudy 32 0 23 -5 69 69 NW 9 15 30.27 1025 10 16 0.00 0.00
2:53 pm 14:53 Mostly Cloudy 32 0 24 -4.4 73 73 NW 14 22 30.28 1026 10 16 0.00 0.00
3:41 pm 15:41 Mostly Cloudy 32 0 23 -5 69 69 NW 15 24 30.27 1025 10 16 0.00 0.00
3:53 pm 15:53 Mostly Cloudy 32 0 23 -5 69 69 NW 15 24 30.29 1026 10 16 0.00 0.00
4:18 pm 16:18 Mostly Cloudy with Light Snow 30 -1.1 26 -3.3 85 85 NNW 15 24 30.30 1026 1 2 0.00 0.00
4:24 pm 16:24 Mostly Cloudy with Light Snow 30 -1.1 25 -3.9 82 82 NNW 10 17 30.30 1026 3 4 0.00 0.00
4:31 pm 16:31 Mostly Cloudy 31 -0.6 26 -3.3 82 82 NNW 8 13 30.30 1026 10 16 0.00 0.00
4:37 pm 16:37 Cloudy 31 -0.6 26 -3.3 82 82 NNW 26 43 30.30 1026 0 0 0.00 0.00
4:42 pm 16:42 Cloudy 29 -1.7 25 -3.9 85 85 N 21 33 30.30 1026 1 2 0.00 0.00
4:45 pm 16:45 Cloudy 29 -1.7 25 -3.9 85 85 N 20 31 30.30 1026 3 4 0.00 0.00
4:53 pm 16:53 Cloudy 29 -1.7 25 -3.9 85 85 N 16 26 30.33 1027 10 16 0.00 0.00
5:12 pm 17:12 Cloudy 30 -1.1 25 -3.9 82 82 N 15 24 30.33 1027 10 16 0.00 0.00
5:23 pm 17:23 Cloudy 30 -1.1 24 -4.4 79 79 N 15 24 30.33 1027 10 16 0.00 0.00
5:53 pm 17:53 Mostly Cloudy 28 -2.2 21 -6.1 75 75 NNW 23 37 30.36 1028 10 16 0.00 0.00
6:14 pm 18:14 Mostly Cloudy 27 -2.8 20 -6.7 75 75 N 17 28 30.39 1029 10 16 0.00 0.00
6:53 pm 18:53 Mostly Clear 25 -3.9 16 -8.9 69 69 N 23 37 30.41 1030 10 16 0.00 0.00
7:53 pm 19:53 Mostly Cloudy 23 -5 16 -8.9 74 74 N 14 22 30.46 1032 10 16 0.00 0.00
8:53 pm 20:53 Mostly Cloudy 22 -5.6 15 -9.4 75 75 NNW 9 15 30.48 1032 10 16 0.00 0.00
9:53 pm 21:53 Cloudy 22 -5.6 15 -9.4 75 75 NNW 10 17 30.49 1033 10 16 0.00 0.00
10:42 pm 22:42 Cloudy with Light Snow 22 -5.6 16 -8.9 78 78 NW 8 13 30.53 1034 3 4 0.00 0.00
10:53 pm 22:53 Cloudy with Light Snow 21 -6.1 16 -8.9 81 81 WNW 8 13 30.50 1033 6 10 0.00 0.00
11:53 pm 23:53 Cloudy 20 -6.7 13 -10.6 74 74 WNW 8 13 30.51 1033 10 16 0.00 0.00

Powered by AerisWeather